sat.trackr.live / text

‹ back to catalog

STARLINK-37257

NORAD 68970 · 2026-099V

PAYLOAD ACTIVE UNKNOWN

§ Identity

Operator
Country
US
Launch date
2026-05-01
Launch site
AFETR
Launch vehicle
Mass (kg)
RCS (m²)

Purposes: comms

External: N2YO · Heavens-Above · Gunter

§ Orbital elements

Epoch: 2026-09-19T22:59:56.452128Z

Period
93.85 min
Inclination
53.1594°
Eccentricity
0.0001086
Mean motion
15.34397535 rev/d
Perigee alt
462.0 km
Apogee alt
463.5 km
Semi-major
6,840.8 km
B*
2.6864e-4
RAAN
78.1470°
Arg perigee
85.5630°
Mean anomaly
274.5496°
Rev number
2,182

§ Raw data

STARLINK-372571 68970U 26099V   26262.95829227  .00008710  00000+0  26864-3 0  99922 68970  53.1594  78.1470 0001086  85.5630 274.5496 15.34397535 21823

JSON: /api/v1/satellites/68970 · /tle

For live sub-satellite position, see the globe view (requires WebGL).

§ Visibility from observer

Set your observer location to see the next 7 days of passes ≥ 10°. The values pass through the URL so the page stays shareable.

No JS? Fill the form by hand. The geolocation button needs JavaScript.